Location: Ellerstadt
(49.4644°N, 8.2615°E)
Time: 03:15:03
(UTC+00:00)

FALCON 9 DEB - Pass Details

Date: 03 March 2021
Orbit: 372 x 388 km, 53.0° (Epoch: 11 April)

Event Time Altitude Azimuth Distance (km) Brightness Sun altitude
Rises 16:09:01 0° 239° (WSW) 2,276 8.9 9.2°
Reaches altitude 10° 16:11:04 10° 238° (WSW) 1,425 8.0 8.9°
Maximum altitude 16:14:15 72° 153° (SSE) 416 3.2 8.4°
Drops below altitude 10° 16:17:27 10° 69° (ENE) 1,434 5.1 7.9°
Enters shadow 16:21:25 -6° 67° (ENE) 3,079 6.7 7.3°
Exits shadow 16:57:33 -81° 77° (ENE) 12,968 10.4 1.7°
